Retour au catalogue

FENGYUN 1C DEB

LostSSO
NORAD 31421·DEBRIS·🇨🇳 China

Lancé May 10, 1999 depuis Taiyuan Satellite Launch Center

Loading…

Prochains Passages (prochaines 24 heures)

TLE

PériméSource: Space-Track

Époque: Sep 25, 2015, 22:31 UTC

1 31421U 99025BTH 15268.93844154  .00000043  00000-0  40662-4 0  9995
2 31421  98.9667 322.4350 0063074 179.0666 181.0639 14.20221517436491

Suivez FENGYUN 1C DEB en temps réel avec AllMySat

Download on the App Store